Showing default

GGSE 4, 2828

Orbit data source: Space-Track

GGSE 4, 2828 is an American payload satellite in LEO that was launched on Wed, 31 May 1967 UTC via a THOR SLV-2 AGENA D launch vehicle from the Air Force Western Test Range (AFWTR). Payloads include a variety of satellites, spacecraft, and rockets equipped with specific instruments for various scientific and technological missions. These include communications satellites like Starlink; space stations such as the ISS; scientific satellites like the Hubble; Earth observation satellites from companies like Planet Labs, Umbra, and HawkEye 360; GPS; miniature CubeSats for education and research; and military/defense satellites.

Loading next visibility...
GGSE 4 details
Identifier
2828, 1967-053C
Orbit
LEO
Last TLE update19 hours ago
Origin
Flag of USNRO/NRL (US)
ManufacturerNRL
MissionDefense Technology
Bus & MotorNRL MULTI, Unknown motor
Mass85 kg wet, 85 kg dry
Launch date (UTC)
1967-05-31 (58 years ago)
Launch vehicle
THOR SLV-2 AGENA D
Launch site
Air Force Western Test Range (AFWTR)
Object type
Payload
Rocket body
Debris
Shape & HBREll + 2 Ant, 18 m
Radar Cross Section1.247 m², Medium (>0.1 m² and < 1m²)

Expand to show TLE details & history

TLE from 19 hours ago
0 GGSE 4
1 02828U 67053C   24355.81592099  .00000193  00000-0  17358-3 0  9993
2 02828  69.9698 150.0549 0007165 179.1036 181.0085 13.97901593932227
Epoch: 2024-12-20T19:34Z
Definitive object data (Epoch: 2024-12-20T19:34:55.573Z)
Latitude0.00002°
Longitude126.44734°
Altitude908.598 km
Speed7.395 km/s
True Right ascension10h 00m 13s
True Declination0° 00' 00"
Sunlit
Object was in daylight at TLE epoch
Visualization TLE readout
Latitude-24.5631°
Longitude115.2276°
Altitude914.393 km
Speed7.392 km/s
Apparent Right ascension06h 15m 32s
Apparent Declination-49° 11' 53"
Sunlit
Object is in daylight
Visualization observer readout
Local Sidereal Time13:22:58
Azimuth233.723° WSW
Elevation-39.128°
Doppler factor1
Orbital elements
Apogee altitude904.329 km
Perigee altitude893.901 km
Semi-major axis7,277.252 km
Eccentricity0.0007165
Inclination69.9698°
RAAN150.0549°
Arg. of periapsis179.1036°
True anomaly181.00706°
Mean anomaly181.0085°
Eccentric anomaly181.00778°
Mean motion3.49617 °/min
BSTAR0.00017358
Orbital period102.97 mins
Loading maneuver chart data...
Loading historical data...
Loading historical data...
Loading historical data...
Loading historical data...
Loading historical data...
Loading historical data...
Loading historical data...

GGSE 4 Visibility forecast

Observer location: undefined°, undefined

Span
Click to sort rows by Start time (UTC) header in descending order
Start Az.
Max El. time (UTC)
Max El. Az.
Max El.
End time (UTC)
End Az.
8 mins2024-12-21 20:09:51.370Z1.585° NNE2024-12-21 20:13:51.370Z45.505° ENE21.08°2024-12-21 20:17:51.370Z95.3° ESE
10 mins2024-12-21 21:55:51.370Z324.17° NNW2024-12-21 21:59:51.370Z264.077° W40.435°2024-12-21 22:05:51.370Z172.428° S
10 mins2024-12-22 11:11:51.370Z176.54° S2024-12-22 11:16:51.370Z94.756° ESE36.239°2024-12-22 11:21:51.370Z36.584° NE
8 mins2024-12-22 12:58:51.370Z261.435° W2024-12-22 13:01:51.370Z301.547° NW24.59°2024-12-22 13:06:51.370Z1.987° NNE
|